This is the latest recevied weather packets stored in our database for station/object KF7SOJ. If no packets are shown the sender has not sent any weather packets the latest 10 day(s).
| Time | Temp. | Humidity | Pressure | Rain* | Wind** | Luminosity | Snow |
|---|---|---|---|---|---|---|---|
| 1777930708 | 13.33° C | 37% | 929.9 hPa | 0 mm | - | 353 W/m² | - |
| 1777930404 | 12.78° C | 36% | 930 hPa | 0 mm | - | 374 W/m² | - |
| 1777930101 | 12.78° C | 38% | 930 hPa | 0 mm | - | 312 W/m² | - |
| 1777929797 | 12.78° C | 38% | 930 hPa | 0 mm | - | 268 W/m² | - |
| 1777929495 | 12.78° C | 38% | 930 hPa | 0 mm | - | 274 W/m² | - |
| 1777929191 | 12.78° C | 38% | 930.1 hPa | 0 mm | - | 277 W/m² | - |
| 1777928889 | 12.22° C | 37% | 930.1 hPa | 0 mm | - | 254 W/m² | - |
| 1777928586 | 12.78° C | 37% | 930.3 hPa | 0 mm | - | 288 W/m² | - |
| 1777928283 | 12.78° C | 36% | 930.4 hPa | 0 mm | - | 244 W/m² | - |
| 1777927980 | 12.78° C | 36% | 930.3 hPa | 0 mm | - | 305 W/m² | - |
| 1777927678 | 12.22° C | 37% | 930.4 hPa | 0 mm | - | 313 W/m² | - |
| 1777927376 | 12.78° C | 40% | 930.3 hPa | 0 mm | - | 270 W/m² | - |
| 1777927075 | 12.78° C | 40% | 930.6 hPa | 0 mm | - | 272 W/m² | - |
| 1777926773 | 12.78° C | 41% | 930.5 hPa | 0 mm | - | 306 W/m² | - |
| 1777926473 | 12.78° C | 41% | 930.5 hPa | 0 mm | - | 323 W/m² | - |
| 1777926170 | 12.22° C | 41% | 930.4 hPa | 0 mm | - | 302 W/m² | - |
| 1777925867 | 12.78° C | 40% | 930.6 hPa | 0 mm | - | 303 W/m² | - |
| 1777925564 | 12.78° C | 40% | 930.5 hPa | 0 mm | - | 301 W/m² | - |
| 1777925262 | 12.22° C | 37% | 930.4 hPa | 0 mm | - | 294 W/m² | - |
| 1777924958 | 12.22° C | 36% | 930.6 hPa | 0 mm | - | 325 W/m² | - |
| 1777924655 | 12.22° C | 34% | 930.7 hPa | 0 mm | - | 292 W/m² | - |
| 1777924350 | 12.22° C | 34% | 930.5 hPa | 0 mm | - | 267 W/m² | - |
| 1777924048 | 12.22° C | 34% | 930.5 hPa | 0 mm | - | 329 W/m² | - |
| 1777923743 | 12.22° C | 34% | 930.6 hPa | 0 mm | - | 329 W/m² | - |
| 1777923440 | 12.22° C | 34% | 930.6 hPa | 0 mm | - | 329 W/m² | - |
* Rain latest hour (hover to see other rain measurements)
** Current wind speed in m/s (hover to see current wind gust speed)